Retour au catalogue

DELTA 1 DEB

ActifSSO
NORAD 37669·DEBRIS·🇺🇸 United States

Lancé Mar 5, 1978 depuis Vandenberg Space Force Base

Loading…

Prochains Passages (prochaines 24 heures)

TLE

FraisSource: Space-Track

Époque: Sep 14, 2026, 08:08 UTC

1 37669U 78026KG  26257.33924949  .00000045  00000-0  55880-4 0  9998
2 37669  99.1459 290.3279 0011098 222.1553 202.7465 14.05492682282000

Suivez DELTA 1 DEB en temps réel avec AllMySat

Download on the App Store